Other Public Products
Issued by NWS Grand Forks, ND

Home | Current Version | Previous Version | Graphics & Text | Print | Product List | Glossary On
Versions: 1 2 3 4 5 6 7 8 9 10 11 12 13 14 15 16 17 18 19 20 21 22 23 24 25 26 27 28 29 30 31 32 33 34 35 36 37 38 39 40 41 42 43 44 45 46 47 48 49 50
182
FPUS83 KFGF 270631
OPUFGF
PRAIRIE TO PINES WEATHER ROUNDUP
NATIONAL WEATHER SERVICE EASTERN NORTH DAKOTA/GRAND FORKS ND
100 AM CDT SAT MAY 27 2017

 **SATELLITE DATA USED TO AUGMENT SKY COVER AT AUTOMATED STATIONS**
 *****  WEATHER ACROSS EASTERN NORTH DAKOTA  *****

CITY           SKY/WX    TMP DP  RH WIND       PRES   REMARKS
GRAND FORKS    FAIR      53  44  71 SW10      29.77S
6HR MIN TEMP:  51; 6HR MAX TEMP:  69;

GRAND FORKS AF FAIR      48  42  79 SW7       29.78S
GRAND CITY NWS NOT AVBL
BUXTON           N/A     53  44  70 SW5         N/A
DEVILS LAKE    FAIR      53  45  74 SW9       29.79R
6HR MIN TEMP:  53; 6HR MAX TEMP:  64;

FARGO          FAIR      53  43  68 S8        29.82R
6HR MIN TEMP:  51; 6HR MAX TEMP:  69;

WAHPETON ARPT  FAIR      50  37  62 CALM      29.85S
$$

 *****  WEATHER ACROSS CENTRAL AND WESTERN NORTH DAKOTA  *****

CITY           SKY/WX    TMP DP  RH WIND       PRES   REMARKS
JAMESTOWN      FAIR      53  41  63 SW8       29.82S
6HR MIN TEMP:  51; 6HR MAX TEMP:  64;

BISMARCK       FAIR      53  38  56 SW5       29.86S
6HR MIN TEMP:  52; 6HR MAX TEMP:  70;

MINOT          FAIR      52  38  58 SW8       29.79S
6HR MIN TEMP:  52; 6HR MAX TEMP:  69;

MINOT AFB      FAIR      52  39  62 W12       29.78S
6HR MIN TEMP:  50; 6HR MAX TEMP:  67;

GARRISON         N/A     50  35  56 W8        29.83R
6HR MIN TEMP:  48; 6HR MAX TEMP:  67;

WILLISTON      FAIR      52  39  61 W13       29.84F
6HR MIN TEMP:  49; 6HR MAX TEMP:  71;

DICKINSON      FAIR      46  33  60 W8        29.87S
6HR MIN TEMP:  46; 6HR MAX TEMP:  65;

HETTINGER      FAIR      49  36  61 NW3       29.93S
6HR MIN TEMP:  48; 6HR MAX TEMP:  66;

$$

 *****  OTHER OBSERVATIONS NORTHEAST NORTH DAKOTA  *****

CITY           SKY/WX    TMP DP  RH WIND       PRES   REMARKS
WALHALLA       NOT AVBL
LANGDON        FAIR      45  41  87 SW6       29.77S
CAVALIER       FAIR      52  41  66 SW9       29.75R
GRAFTON        FAIR      48  45  87 SW6       29.78S
CANDO          NOT AVBL
FORT TOTTEN      N/A     49  40  71 S2        29.95S
ROLLA          MOCLDY    48  41  76 SW10      29.77R
RUGBY          NOT AVBL
 ***** THE ABOVE OBSERVATIONS ARE NON NWS ARE NOT QUALITY
        CONTROLLED AND MAY MIS-REPORT RAIN FOR SNOW...
$$

 *****  OTHER OBSERVATIONS SOUTHEAST NORTH DAKOTA *****

CITY           SKY/WX    TMP DP  RH WIND       PRES   REMARKS
COOPERSTOWN    FAIR      50  43  76 SW9       29.83R
VALLEY CITY    FAIR      48  45  87 SW7       29.84S
OAKES          NOT AVBL
GWINNER        CLEAR     50  45  81 MISG      29.85S
SHEYENNE NWR     N/A     47  44  88 SW3       29.95S
BUFFALO          N/A     52  39  60 E5          N/A
WYNDMERE         N/A     50  43  76 SW3         N/A
 ***** THE ABOVE OBSERVATIONS ARE NON NWS ARE NOT QUALITY
       CONTROLLED AND MAY MIS-REPORT RAIN FOR SNOW...
$$

  *****  WEATHER ACROSS NORTHERN MINNESOTA  *****

CITY           SKY/WX    TMP DP  RH WIND       PRES   REMARKS
FLAG ISLAND    FAIR      55  48  76 SW9       29.72R
WARROAD        FAIR      54  46  76 SW7       29.76R
ROSEAU         FAIR      52  45  76 SW7       29.75S
HALLOCK        FAIR      45  37  76 SW8       29.75S
THF RVR FALLS  FAIR      54  42  64 SW10      29.79S
6HR MIN TEMP:  53; 6HR MAX TEMP:  66;

HALSTAD          N/A     48  41  77 SW10        N/A
FOSSTON        FAIR      46  41  81 S5        29.81S
BAUDETTE       FAIR      51  44  77 SW6       29.75R
6HR MIN TEMP:  50; 6HR MAX TEMP:  69;

WASKISH        FAIR      52  45  76 S3        29.78S
CROOKSTON      FAIR      50  43  76 SW8       29.79S
$$
  *****  WEATHER ACROSS CENTRAL AND WEST MINNESOTA  *****

CITY           SKY/WX    TMP DP  RH WIND       PRES   REMARKS
BEMIDJI        FAIR      49  42  78 SW3       29.80S
PARK RAPIDS    FAIR      52  41  66 CALM      29.82S
6HR MIN TEMP:  51; 6HR MAX TEMP:  70; 6HR PCP: TRACE;

WADENA         FAIR      50  43  76 SW7       29.85R
DETROIT LAKES  FAIR      54  45  71 SW5       29.84R
MOORHEAD       FAIR      54  43  66 S6        29.84R
FERGUS FALLS   FAIR      54  45  71 CALM      29.84R
ELBOW LAKE     FAIR      49  45  85 CALM      29.86S
6HR MIN TEMP:  47; 6HR MAX TEMP:  68;

MORRIS MN      FAIR      54  46  76 CALM      29.86S
STAPLES        FAIR      52  43  71 CALM      29.84S
WHEATON        FAIR      54  43  66 SW5       29.88S
$$
  *****  WEATHER ELSEWHERE ACROSS MINNESOTA  *****

CITY           SKY/WX    TMP DP  RH WIND       PRES   REMARKS
DULUTH         FAIR      48  47  96 W7        29.79S
6HR MIN TEMP:  48; 6HR MAX TEMP:  63;

INTRNTL FALLS  FAIR      47  42  83 SW3       29.76S
6HR MIN TEMP:  46; 6HR MAX TEMP:  72;

ELY            FAIR      50  48  93 CALM      29.78S
CLOQUET        FAIR      48  46  93 W8        29.80S
BRAINERD       FAIR      55  44  66 W5        29.83S
6HR MIN TEMP:  55; 6HR MAX TEMP:  71;

HIBBING        FAIR      46  44  93 CALM      29.79S
6HR MIN TEMP:  46; 6HR MAX TEMP:  72;

ALEXANDRIA     FAIR      51  45  79 SW8       29.87R
6HR MIN TEMP:  50; 6HR MAX TEMP:  69;

SAINT CLOUD    FAIR      54  46  74 W6        29.84S
6HR MIN TEMP:  54; 6HR MAX TEMP:  72;

MINNEAPOLIS    FAIR      62  46  55 NW5       29.85R
6HR MIN TEMP:  61; 6HR MAX TEMP:  78;

$$

  *****  WEATHER ACROSS SOUTH DAKOTA  *****

CITY           SKY/WX    TMP DP  RH WIND       PRES   REMARKS
SIOUX FALLS    FAIR      52  44  74 CALM      29.90R
6HR MIN TEMP:  47; 6HR MAX TEMP:  72;

BROOKINGS      FAIR      51  44  77 CALM      29.90R
WATERTOWN      FAIR      52  47  83 CALM      29.88S
6HR MIN TEMP:  48; 6HR MAX TEMP:  67;

HURON          CLOUDY    55  48  77 CALM      29.89R
6HR MIN TEMP:  53; 6HR MAX TEMP:  71;

SISSETON         N/A     53  46  77 W6        29.86R
ABERDEEN       FAIR      50  41  71 CALM      29.88R
6HR MIN TEMP:  49; 6HR MAX TEMP:  68;

MITCHELL       FAIR      55  48  77 S5        29.90S
PIERRE         CLOUDY    61  40  45 W13       29.90S
6HR MIN TEMP:  59; 6HR MAX TEMP:  70;

MOBRIDGE       FAIR      55  40  56 SE5       29.86S
RAPID CITY     LGT RAIN  51  48  89 NW6       30.00S
6HR MIN TEMP:  51; 6HR MAX TEMP:  60; 6HR PCP:  0.05;

$$

  *****  SOME WEATHER IN NEARBY STATES *****

CITY           SKY/WX    TMP DP  RH WIND       PRES   REMARKS
GLASGOW MT     FAIR      48  39  71 W6        29.89F
6HR MIN TEMP:  47; 6HR MAX TEMP:  60; 6HR PCP:  0.01;

GREAT FALLS MT FAIR      48  39  71 SW12      30.00R
6HR MIN TEMP:  48; 6HR MAX TEMP:  62; 6HR PCP:  0.01;

CHEYENNE WY    CLOUDY    43  41  93 N7        30.03F
6HR MIN TEMP:  43; 6HR MAX TEMP:  47; 6HR PCP:  0.34;

SCOTTSBLUFF NE CLOUDY    50  46  86 CALM      29.99F
6HR MIN TEMP:  50; 6HR MAX TEMP:  59; 6HR PCP:  0.50;

OMAHA NE       FAIR      60  51  72 N6        29.87R
6HR MIN TEMP:  58; 6HR MAX TEMP:  81;

DES MOINES IA  FAIR      66  62  87 E5        29.85S
6HR MIN TEMP:  66; 6HR MAX TEMP:  82;

DAVENPORT IA   CLOUDY    60  57  89 E7        29.89R
6HR MIN TEMP:  60; 6HR MAX TEMP:  65;

CHICAGO IL     CLOUDY    57  53  86 NE8       29.86R
6HR MIN TEMP:  55; 6HR MAX TEMP:  57; 6HR PCP:  0.08;

EAU CLAIRE WI  FAIR      58  55  90 S3        29.82F
6HR MIN TEMP:  58; 6HR MAX TEMP:  73;

LA CROSSE WI   CLOUDY    63  59  87 S5        29.86R
6HR MIN TEMP:  61; 6HR MAX TEMP:  72;

$$

  *****  SOME NATIONAL WEATHER *****

CITY           SKY/WX    TMP DP  RH WIND       PRES   REMARKS
LA GUARDIA NY  FAIR      63  53  70 NW10      29.81S



USA.gov is the U.S. government's official web portal to all federal, state and local government web resources and services.